ARIANE 5 R/B, 37811

Orbit data source: Space-Track

ARIANE 5 R/B, 37811 is space debris in HEO originally from a launch on Wed, 21 Sep 2011 UTC launched from the French Guiana (FRGUI). Debris objects in space refer to the collection of defunct objects orbiting the Earth. Examples of debris include non-operational satellites, rocket bodies, and fragments generated from explosions, collisions, or faulty payload assembly.

Loading next visibility...
Identifier
37811, 2011-049C
Orbit
HEO
Country
Flag of FRFR
Related business
Manufacturer
EADS/LV
Mission
Spacecraft
Bus & Motor
ESC-A, Unknown motor
Mass
~5,000 kg wet, ~5,000 kg dry
Launch date (UTC)
2011-09-21 (15 years ago)
Launch vehicle
Unknown
Launch site
French Guiana (FRGUI)
Object type
Payload
Rocket body
Debris
Shape & HBR
Cyl + 1 Nozzle, 3.5 m
Radar Cross Section
41.627 m², Large (>1 m²)

Expand to show TLE details & history
Last TLE update: 11 hours ago

TLE from 11 hours ago
0 ARIANE 5 R/B
1 37811U 11049C   26095.25077580  .00005008  00000-0  73501-3 0  9993
2 37811   2.3090 197.1633 6897512  59.8098 350.6419  2.79078764132311
Epoch: 2026-04-05T06:01Z
TLE epoch observation values (Epoch: 2026-04-05T06:01:07.029Z)
Latitude
0.00007°
Longitude
-86.17581°
Altitude
1,889.485 km
Speed
8.815 km/s
True Right ascension
13h 10m 38s
True Declination
0° 00' 00"
Sunlit
Object was in full shadow at epoch
Visualization orbit readout
Latitude
Unknown
Longitude
Unknown
Altitude
Unknown
Speed
Unknown
Apparent Right ascension
Unknown
Apparent Declination
Unknown
Sunlit
N/A
Visualization observer readout
Local Sidereal Time
23:15:44
Azimuth
Unknown
Elevation
Unknown
Doppler factor
Unknown
Orbital elements
Apogee altitude
29,639.707 km
Perigee altitude
234.963 km
Semi-major axis
21,315.472 km
Eccentricity
0.68975
Inclination
2.309°
RAAN
197.1633°
Arg. of periapsis
59.8098°
True anomaly
300.03252°
Mean anomaly
350.6419°
Eccentric anomaly
332.22663°
Mean motion
0.69743 °/min
Orbital period
516.18 mins
BSTAR
0.00073501
Loading maneuver chart data...
Computing Atmospheric mass density...
Loading historical data...
Loading historical data...
Loading historical data...
Loading historical data...
Loading historical data...
Loading historical data...
Loading historical data...
Other satellites on launch #49 in the year 2011 (2011-09-21 UTC)

Documentation

Showing up to 5 results
|